Location: Baia Mare
(47.6567°N, 23.5850°E)
Time: 20:38:47
(UTC+03:00)

ISS - Pass Details

Date: 22 May 2018
Orbit: 402 x 407 km, 51.6° (Epoch: 25 May)

Event Time Altitude Azimuth Distance (km) Brightness Sun altitude
Rises 00:53:15 0° 274° (W) 2,317 0.2 -21.7°
Reaches altitude 10° 00:55:24 10° 282° (WNW) 1,458 -0.8 -21.8°
Maximum altitude 00:58:31 40° 354° (N) 607 -2.5 -21.8°
Drops below altitude 10° 01:01:38 10° 66° (ENE) 1,458 -0.8 -21.9°
Sets 01:03:47 0° 74° (ENE) 2,318 0.2 -21.9°
